TIME,�g��[���C[MJ/h],����[MJ/h],�Ɩ�[MJ/h],�~�[[MJ/h],�①��[MJ/h],��y���[MJ/h],�Ǝ��q��[MJ/h],���̑�[MJ/h],�����G�l���M�[[MJ/h]
2003/1/1 0:00,0.5432,0,1.1218,0,0.8042,1.0368,0.157,0.3038,0
2003/1/1 0:15,0.5409,0,0.9171,0,0.9422,1.0981,0.3093,0.3119,0
2003/1/1 0:30,0.5404,0,0.9694,0,0.5095,0.8126,0.2166,0.344,0
2003/1/1 0:45,0.5423,0,1.1654,0,0.6614,0.7095,0.324,0.0055,0
2003/1/1 1:00,0.5397,0,1.1585,0,0.6186,0.7367,0.2484,0.002,0
2003/1/1 1:15,0.5371,0,1.1442,0,0.2701,0.7279,0.2223,-0.058,0
2003/1/1 1:30,0.5368,0,1.2411,0,0.6081,0.7913,0.3154,0.1169,0
2003/1/1 1:45,0.5364,0,0.7757,0,0.3951,1.0925,0.2376,0.2814,0
2003/1/1 2:00,0.5414,0,0.4054,0,0.5491,0.9229,0.3707,0.2295,0
2003/1/1 2:15,0.5347,0,0.3773,0,0.4913,0.903,0.3401,0.0992,0
2003/1/1 2:30,0.534,0,0.4476,0,0.3329,0.8974,0.2269,0.005,0
2003/1/1 2:45,0.5332,0,0.3923,0,0.4589,0.9026,0.3243,0.0102,0
2003/1/1 3:00,0.5348,0,0.3822,0,0.2677,0.9179,0.1619,0.0003,0
2003/1/1 3:15,0.5345,0,0.4499,0,0.6608,0.9009,0.3187,0.0386,0
2003/1/1 3:30,0.5358,0,0.402,0,0.4097,0.8965,0.3164,-0.0017,0
2003/1/1 3:45,0.5365,0,0.3548,0,0.447,0.714,0.2336,0.0459,0
2003/1/1 4:00,0.5373,0,0.3941,0,0.3509,0.7121,0.2546,-0.0174,0
2003/1/1 4:15,0.5413,0,0.4923,0,0.2654,0.7272,0.2308,-0.0246,0
2003/1/1 4:30,0.5782,0,0.4159,0,0.7176,0.753,0.3216,-0.018,0
2003/1/1 4:45,0.5822,0,0.397,0,0.3236,0.7731,0.2363,-0.0747,0
2003/1/1 5:00,0.5833,0,0.4435,0,0.5077,0.7851,0.2533,-0.053,0
2003/1/1 5:15,0.5409,0,0.4592,0,0.2461,0.7118,0.234,-0.0111,0
2003/1/1 5:30,0.5397,0,0.4164,0,0.527,0.714,0.3213,-0.0144,0
2003/1/1 5:45,0.539,0,0.4569,0,0.5049,0.703,0.1679,-0.0271,0
2003/1/1 6:00,0.5406,0,0.5116,0,0.31,0.7109,0.325,-0.0612,0
2003/1/1 6:15,0.5423,0,0.4434,0,0.4108,0.7265,0.2359,-0.0932,0
2003/1/1 6:30,0.5394,0,0.4438,0,0.309,0.7036,0.3293,-0.0338,0
2003/1/1 6:45,0.5414,0,0.4553,0,0.6885,0.7193,0.1692,-0.024,0
2003/1/1 7:00,0.6274,0,0.5164,0,0.2843,0.863,0.3192,-0.147,0
2003/1/1 7:15,0.5882,0,0.445,0,0.3718,0.7746,0.2346,-0.1099,0
2003/1/1 7:30,0.543,0,0.4428,0,0.3744,0.7233,0.3239,-0.0357,0
2003/1/1 7:45,0.5436,0,0.5024,0,0.504,0.7281,0.1712,-0.06,0
2003/1/1 8:00,0.5417,0,0.4831,0,0.5226,0.7036,0.323,-0.0068,0
2003/1/1 8:15,0.5378,0,0.455,0,0.2082,0.9091,0.2396,0.0305,0
2003/1/1 8:30,0.6042,0,0.364,0,0.5106,1.1143,0.3326,-0.0392,0
2003/1/1 8:45,0.5733,0,0.3527,0,0.344,1.0958,0.3005,0.1858,0
2003/1/1 9:00,0.5675,0,0.4964,0,0.6562,1.077,0.3116,0.0343,0
2003/1/1 9:15,0.5357,0,0.4414,0,0.3328,1.0418,0.4209,0.0367,0
2003/1/1 9:30,0.5367,0,0.4684,0,0.6412,1.0312,0.2892,0.0475,0
2003/1/1 9:45,0.5355,0,0.4628,0.0724,0.5341,1.061,0.2353,0.2873,0
2003/1/1 10:00,0.5301,0,0.8356,0.2994,0.2604,1.0833,0.3321,0.0557,0
2003/1/1 10:15,0.5312,0,0.8886,0.1408,0.5689,1.1046,0.3529,0.0315,0
2003/1/1 10:30,0.5304,0,0.895,0.1392,0.3521,1.0997,0.1657,0.7923,0
2003/1/1 10:45,0.6684,0,0.9998,0.1405,0.7109,1.3795,0.3407,0.0238,0
2003/1/1 11:00,0.5613,0,1.2508,0.1404,0.3776,1.3356,0.5854,0.3743,0
2003/1/1 11:15,0.5377,0,0.6988,0.1423,0.687,1.3064,0.2307,0.6831,0
2003/1/1 11:30,0.5328,0,0.9017,0.1418,0.9492,1.3146,0.3084,0.8156,0
2003/1/1 11:45,0.5118,0,0.4293,0.1427,0.6781,1.2764,0.2307,0.3476,0
2003/1/1 12:00,0.5463,0,0.5335,0.1428,0.8274,1.1592,0.3897,0.1437,0
2003/1/1 12:15,0.5377,0,0.3763,0.144,0.3938,1.0548,0.3406,0.1689,0
2003/1/1 12:30,0.5237,0,0.3691,0.1444,0.6506,1.0372,0.2226,0.181,0
2003/1/1 12:45,0.5426,0,0.4454,0.1326,0.5427,1.0558,0.4173,0.0789,0
2003/1/1 13:00,0.5358,0,0.4013,0.1202,0.5508,1.0986,0.2691,0.0354,0
2003/1/1 13:15,0.4522,0,0.4746,0.1185,0.6052,1.0567,0.3237,0.1171,0
2003/1/1 13:30,0.5403,0,0.3954,0.1123,0.1786,1.1118,0.2366,0.05,0
2003/1/1 13:45,0.5465,0,0.3766,0.1056,0.5986,1.1192,0.3277,0.0301,0
2003/1/1 14:00,0.5404,0,0.445,0.1103,0.5338,1.1148,0.1737,0.0576,0
2003/1/1 14:15,0.5388,0,0.3524,0.1106,0.3813,1.0935,0.3257,0.0262,0
2003/1/1 14:30,0.4032,0,0.0992,0.1056,0.6447,0.9053,0.4609,0.1718,0
2003/1/1 14:45,0.005,0,0.1848,0.1087,0.1263,0.1922,0.5679,0.4949,0
2003/1/1 15:00,0.0052,0,0.216,0.1074,0.5401,0.1636,0.229,0.4608,0
2003/1/1 15:15,0.0052,0,0.2157,0.105,0.5639,0.1614,0.329,0.4723,0
2003/1/1 15:30,0.005,0,0.2161,0.1064,0.3701,0.1608,0.2294,0.4899,0
2003/1/1 15:45,0.0052,0,0.2157,0.112,0.6702,0.1598,0.3264,0.4916,0
2003/1/1 16:00,0.005,0,0.2146,0.113,0.2215,0.1596,0.2282,0.5135,0
2003/1/1 16:15,0.005,0,0.2123,0.1103,0.3864,0.158,0.3165,0.4739,0
2003/1/1 16:30,0.005,0,0.2114,0.1129,0.5338,0.1575,0.2575,0.5017,0
2003/1/1 16:45,0.005,0,0.2192,0.1129,0.4095,0.1606,0.2349,0.5112,0
2003/1/1 17:00,0.005,0,0.2258,0.1176,0.6415,0.1616,0.3231,0.5125,0
2003/1/1 17:15,0.005,0,0.2259,0.1063,0.1639,0.1613,0.234,0.5351,0
2003/1/1 17:30,0.0049,0,0.2311,0.1102,0.487,0.1601,0.2782,0.4483,0
2003/1/1 17:45,0.005,0,0.2233,0.1093,0.452,0.1591,0.2033,0.5054,0
2003/1/1 18:00,0.005,0,0.2269,0.1109,0.4815,0.161,0.324,0.4844,0
2003/1/1 18:15,0.005,0,0.2291,0.1123,0.5149,0.1604,0.2339,0.4916,0
2003/1/1 18:30,0.005,0,0.2304,0.1233,0.1446,0.1623,0.3185,0.4801,0
2003/1/1 18:45,0.0049,0,0.2359,0.1117,0.6006,0.1616,0.1691,0.4853,0
2003/1/1 19:00,0.005,0,0.2324,0.1115,0.3437,0.1992,0.3126,0.4923,0
2003/1/1 19:15,0.005,0,0.2364,0.1176,0.6277,0.1607,0.2356,0.486,0
2003/1/1 19:30,0.005,0,0.2409,0.1153,0.2773,0.1613,0.3283,0.4895,0
2003/1/1 19:45,0.005,0,0.2364,0.1146,0.3573,0.162,0.1711,0.4713,0
2003/1/1 20:00,0.0049,0,0.2664,0.1117,0.5188,0.1606,0.3223,0.5203,0
2003/1/1 20:15,0.005,0,2.0494,0.1129,0.4022,0.3682,0.2379,0.5128,0
2003/1/1 20:30,1.6292,0,1.9466,0.1132,0.5678,2.2235,0.3239,-1.1138,0
2003/1/1 20:45,1.0682,0,0.9624,0.1165,0.3388,1.5972,0.3563,0.3233,0
2003/1/1 21:00,0.8058,0,0.6824,0.1122,0.7112,1.3032,0.1708,0.1493,0
2003/1/1 21:15,0.7782,0,0.6669,0.1215,0.1092,1.2784,0.3334,0.2089,0
2003/1/1 21:30,0.7583,0,0.6621,0.1092,0.536,1.2787,0.24,0.1727,0
2003/1/1 21:45,0.6837,0,0.6552,0.1116,0.45,1.2466,0.3279,0.1935,0
2003/1/1 22:00,0.6647,0,0.6038,0.113,0.4936,1.2211,0.2582,0.2445,0
2003/1/1 22:15,0.7314,0,0.5687,0.1081,0.5453,1.2853,0.2373,0.2449,0
2003/1/1 22:30,0.5723,0,1.2279,0.1112,0.4172,1.0961,0.3151,0.3167,0
2003/1/1 22:45,0.7109,0,0.8934,0.1104,0.9472,1.2763,0.2356,0.2249,0
2003/1/1 23:00,0.5678,0,0.8119,0.1112,0.7563,1.1347,0.2557,0.3593,0
2003/1/1 23:15,0.6807,0,1.0948,0.1089,0.7464,1.2095,0.3168,0.268,0
2003/1/1 23:30,0.5907,0,0.8548,0.1158,0.521,1.1156,0.3145,0.3298,0
2003/1/1 23:45,0.5612,0,0.648,0.1178,0.5354,1.0927,0.3158,0.0167,0
2003/1/2 0:00,0.3999,0,0.5031,0.1119,0.5959,0.8109,0.2412,0.2683,0
2003/1/2 0:15,0.005,0,0.0714,0.1117,0.3169,0.165,0.264,0.6314,0
2003/1/2 0:30,0.005,0,0,0.1094,0.4812,0.1632,0.2356,0.5957,0
2003/1/2 0:45,0.0052,0,0.0003,0.1104,0.3087,0.1642,0.3293,0.5881,0
2003/1/2 1:00,0.005,0,0,0.1133,0.6355,0.1637,0.2412,0.5841,0
2003/1/2 1:15,0.0052,0,0.0003,0.1126,0.3889,0.1623,0.2582,0.5782,0
2003/1/2 1:30,0.005,0,0.002,0.1151,0.2985,0.1606,0.24,0.5753,0
2003/1/2 1:45,0.005,0,0.0043,0.1195,0.4683,0.1621,0.3326,0.5653,0
2003/1/2 2:00,0.0049,0,0.0092,0.1221,0.4052,0.1611,0.1704,0.5705,0
2003/1/2 2:15,0.005,0,0.0183,0.1107,0.5358,0.16,0.3293,0.5671,0
2003/1/2 2:30,0.0049,0,0.0166,0.1142,0.1086,0.1604,0.237,0.5443,0
2003/1/2 2:45,0.005,0,0.0207,0.1145,0.6376,0.1606,0.3201,0.5544,0
2003/1/2 3:00,0.005,0,0.0258,0.1135,0.3335,0.161,0.1837,0.5485,0
2003/1/2 3:15,0.005,0,0.0374,0.1161,0.5525,0.1617,0.3132,0.56,0
2003/1/2 3:30,0.005,0,0.0354,0.1272,0.1837,0.162,0.238,0.5492,0
2003/1/2 3:45,0.005,0,0.0359,0.1132,0.5075,0.1616,0.3298,0.554,0
2003/1/2 4:00,0.005,0,0.0312,0.1158,0.4673,0.1627,0.2452,0.5426,0
2003/1/2 4:15,0.0052,0,0.0399,0.1165,0.2805,0.1629,0.2641,0.5446,0
2003/1/2 4:30,0.005,0,0.0413,0.1161,0.4134,0.1624,0.33,0.5737,0
2003/1/2 4:45,0.0052,0,0.0439,0.1136,0.3744,0.1624,0.2472,0.5427,0
2003/1/2 5:00,0.005,0,0.0395,0.1231,0.5587,0.1621,0.3318,0.5308,0
2003/1/2 5:15,0.005,0,0.0423,0.1208,0.123,0.1621,0.1787,0.5223,0
2003/1/2 5:30,0.0052,0,0.0484,0.1205,0.6653,0.1617,0.3443,0.5473,0
2003/1/2 5:45,0.005,0,0.0492,0.1143,0.3005,0.1616,0.2461,0.5365,0
2003/1/2 6:00,0.005,0,0.0472,0.1152,0.4278,0.1608,0.337,0.536,0
2003/1/2 6:15,0.0049,0,0.2935,0.1238,0.2523,0.1614,0.1794,0.5086,0
2003/1/2 6:30,0.005,0,0.6818,0.1236,0.5754,0.1629,0.3396,0.5134,0
2003/1/2 6:45,0.0052,0,0.0521,0.1142,0.3086,0.1632,0.251,0.5584,0
2003/1/2 7:00,0.005,0,0.0517,0.1161,0.3324,0.2007,0.3411,0.5329,0
2003/1/2 7:15,0.005,0,0.0081,0.1205,0.4677,0.1608,0.2543,0.5674,0
2003/1/2 7:30,0.0049,0,0.0412,0.1264,0.4203,0.2367,0.2694,1.1366,0
2003/1/2 7:45,1.8711,0,0.0072,0.121,0.3064,2.4828,0.3931,-0.8349,0
2003/1/2 8:00,1.2141,0,0.0016,0.1138,0.306,1.8004,0.4415,0.6457,0
2003/1/2 8:15,0.915,0,0.0222,0.1155,0.6058,1.4823,0.4931,1.0447,0
2003/1/2 8:30,0.9717,0,0.0262,0.1119,0.2117,1.548,0.6437,0.0861,0
2003/1/2 8:45,0.8076,0,0.0426,0.1159,0.5928,1.3664,0.501,0.1335,0
2003/1/2 9:00,0.7887,0,0.0749,0.1122,0.3388,1.3666,0.6018,0.1951,0
2003/1/2 9:15,0.7762,0,0.0537,0.1128,0.5206,1.3224,1.1537,0.2763,0
2003/1/2 9:30,0.769,0,0.0272,0.1107,0.2056,1.3136,0.6965,0.2945,0
2003/1/2 9:45,0.7651,0,0.0091,0.1236,0.5704,1.3164,0.3367,0.1886,0
2003/1/2 10:00,0.6837,0,0.005,0.1096,0.4408,1.2263,0.2393,0.2903,0
2003/1/2 10:15,0.6728,0,0.2148,0.1107,0.247,1.2253,0.3358,0.3756,0
2003/1/2 10:30,0.735,0,0.2591,0.1113,0.5141,1.2884,0.2704,0.1502,0
2003/1/2 10:45,0.5838,0,0.0446,0.1139,0.3499,1.1017,0.2524,0.0416,0
2003/1/2 11:00,0.5806,0,0.0085,0.1122,0.6526,1.1328,0.3398,-0.0049,0
2003/1/2 11:15,0.1489,0,0.0122,0.1115,0.3524,0.6723,0.2447,0.4457,0
2003/1/2 11:30,0.0052,0,0.0264,0.1106,0.8467,0.4815,0.2638,2.7287,0
2003/1/2 11:45,0.0052,0,1.5039,0.1129,0.8569,0.4929,0.2503,2.3725,0
2003/1/2 12:00,0.005,0,0.6157,0.1151,0.68,0.5528,0.3694,0.573,0
2003/1/2 12:15,0.0052,0,0.0351,0.1132,0.5593,0.536,0.3744,0.5898,0
2003/1/2 12:30,0.0049,0,0,0.125,0.4935,0.5475,0.2426,0.5734,0
2003/1/2 12:45,0.005,0,0,0.1086,0.6083,0.5232,0.271,0.6035,0
2003/1/2 13:00,0.0049,0,0,0.1128,0.1184,0.5148,0.3339,1.2613,0
2003/1/2 13:15,0.005,0,0.023,0.1084,0.721,0.5126,0.2435,0.5756,0
2003/1/2 13:30,0.005,0,0,0.1093,0.3544,0.5289,0.3338,0.5849,0
2003/1/2 13:45,0.005,0,0,0.1081,0.5481,0.5348,0.1741,0.5651,0
2003/1/2 14:00,0.0049,0,0,0.1063,0.3146,0.6483,0.3351,0.5891,0
2003/1/2 14:15,0.0049,0,0,0.106,0.3,0.7044,0.2415,0.6202,0
2003/1/2 14:30,0.0049,0,0,0.1053,0.6788,0.7032,0.3302,0.6055,0
2003/1/2 14:45,0.005,0,0,0.1063,0.2915,0.7057,0.271,0.6101,0
2003/1/2 15:00,0.0049,0,0,0.11,0.5259,0.6972,0.2316,0.6206,0
2003/1/2 15:15,0.0049,0,0,0.1058,0.2527,0.6951,0.3277,0.5831,0
2003/1/2 15:30,0.0049,0,0,0.1089,0.4995,0.6938,0.2424,0.6085,0
2003/1/2 15:45,0.0049,0,0,0.1076,0.6035,0.7047,0.3282,0.6333,0
2003/1/2 16:00,0.005,0,0.0314,0.1068,0.2879,0.4982,0.1823,0.5911,0
2003/1/2 16:15,0.005,0,0,0.1079,0.6941,0.1596,0.3807,0.4977,0
2003/1/2 16:30,0.005,0,0.0003,0.1146,0.4595,0.1588,0.3614,0.5345,0
2003/1/2 16:45,1.0408,0,0.6407,0.127,0.3404,1.4063,0.2606,-0.4965,0
2003/1/2 17:00,1.057,0,0.719,0.1238,0.4703,1.5849,0.2884,-0.5442,0
2003/1/2 17:15,0.9416,0,0.7066,0.1094,0.4192,1.5114,0.2628,-0.4789,0
2003/1/2 17:30,0.8035,0,0.6994,0.1135,0.6414,1.351,0.3514,-0.2864,0
2003/1/2 17:45,0.7321,0,0.6996,0.1132,0.1565,1.2766,0.3578,-0.2038,0
2003/1/2 18:00,0.6589,0,0.699,0.1117,0.536,1.206,0.2624,-0.1794,0
2003/1/2 18:15,0.7252,0,0.8607,0.113,0.3708,1.2983,0.2835,0.0331,0
2003/1/2 18:30,0.7383,0,1.0724,0.0127,0.5844,1.2999,0.2637,0.1735,0
2003/1/2 18:45,0.7301,0,0.8988,0,0.4461,1.3139,0.3528,0.0514,0
2003/1/2 19:00,0.591,0,0.8892,0,0.2766,1.2158,0.2642,0.2261,0
2003/1/2 19:15,0.724,0,0.8912,0,0.4084,1.3239,0.3498,0.0481,0
2003/1/2 19:30,0.5741,0,0.882,0,0.3993,1.1625,0.2681,0.2013,0
2003/1/2 19:45,0.7163,0,0.8035,0,0.6077,1.2724,0.283,0.9029,0
2003/1/2 20:00,0.5642,0,0.666,0,0.1138,1.1352,0.3449,0.5046,0
2003/1/2 20:15,0.5761,0,0.8692,0,0.6379,1.1364,0.2637,0.561,0
2003/1/2 20:30,0.6903,0,0.5882,0,0.3671,1.3208,0.3845,0.4676,0
2003/1/2 20:45,0.5619,0,0.5864,0,0.5632,1.1294,0.3632,0.5609,0
2003/1/2 21:00,0.559,0,0.5671,0,0.2304,1.0859,0.1915,0.5397,0
2003/1/2 21:15,0.5478,0,0.5688,0,0.4221,1.0842,0.3515,0.5642,0
2003/1/2 21:30,0.5604,0,0.5659,0,0.5478,1.1589,0.258,0.5142,0
2003/1/2 21:45,0.6656,0,0.6768,0,0.3516,1.2587,0.3493,0.4241,0
2003/1/2 22:00,0.5795,0,0.7589,0,0.4264,1.1763,0.2771,0.519,0
2003/1/2 22:15,0.5551,0,0.7678,0,0.3172,1.1308,0.2602,0.582,0
2003/1/2 22:30,0.5522,0,0.906,0,0.6846,1.1316,0.346,0.5289,0
2003/1/2 22:45,0.5509,0,0.7736,0,0.2419,1.1513,0.2635,0.7124,0
2003/1/2 23:00,0.5687,0,1.1723,0,0.4569,1.2123,0.2781,0.7439,0
2003/1/2 23:15,0.704,0,1.1265,0,0.5028,1.363,0.3447,0.3076,0
2003/1/2 23:30,0.5652,0,0.5679,0,0.5612,1.1261,0.2592,0.464,0
2003/1/2 23:45,0.5592,0,0.7343,0,0.6744,1.1238,0.3555,0.4118,0
2003/1/3 0:00,0.5521,0,1.1311,0,0.83,1.2012,0.2513,0.3817,0
2003/1/3 0:15,0.5495,0,1.2957,0,0.8208,1.1919,0.3336,0.3442,0
2003/1/3 0:30,0.6042,0,0.6589,0,0.4441,1.2554,0.2395,0.3083,0
2003/1/3 0:45,0.5933,0,0.6546,0,0.7481,1.2154,0.3286,0.2994,0
2003/1/3 1:00,0.4676,0,0.6549,0,0.3577,1.0323,0.2436,0.4674,0
2003/1/3 1:15,0.005,0,0.0408,0,0.5882,0.2409,0.3348,1.1321,0
2003/1/3 1:30,0.0052,0,0.0006,0,0.2036,0.1904,0.2608,0.9865,0
2003/1/3 1:45,0.005,0,0.0003,0,0.4075,0.1647,0.2481,0.9482,0
2003/1/3 2:00,0.005,0,0.0003,0,0.5079,0.1624,0.3335,1.0279,0
2003/1/3 2:15,0.0052,0,0.004,0,0.4035,0.1642,0.2491,0.9687,0
2003/1/3 2:30,0.0049,0,0.6054,0,0.436,0.1629,0.2668,0.9282,0
2003/1/3 2:45,0.005,0,0.29,0,0.1558,0.1633,0.2461,1.0044,0
2003/1/3 3:00,0.005,0,0.018,0,0.6252,0.1614,0.3377,0.9271,0
2003/1/3 3:15,0.0049,0,0.0111,0,0.324,0.1619,0.3349,0.9567,0
2003/1/3 3:30,0.005,0,0.0236,0,0.4971,0.1623,0.2517,1.0102,0
2003/1/3 3:45,0.005,0,0.0217,0,0.1997,0.1626,0.2716,0.941,0
2003/1/3 4:00,0.005,0,0.024,0,0.6533,0.1627,0.2536,0.9759,0
2003/1/3 4:15,0.005,0,0.0236,0,0.2583,0.1634,0.3406,0.9835,0
2003/1/3 4:30,0.005,0,0.0343,0,0.3856,0.1637,0.2549,0.9304,0
2003/1/3 4:45,0.005,0,0.0405,0,0.3817,0.1637,0.2717,0.9923,0
2003/1/3 5:00,0.005,0,0.0452,0,0.5325,0.1634,0.3413,0.8844,0
2003/1/3 5:15,0.005,0,0.0474,0,0.2088,0.1634,0.2526,0.8942,0
2003/1/3 5:30,0.005,0,0.0478,0,0.4252,0.1634,0.3463,0.9865,0
2003/1/3 5:45,0.005,0,0.0501,0,0.4815,0.1637,0.2539,0.935,0
2003/1/3 6:00,0.005,0,0.6359,0,0.3057,0.163,0.2717,0.9389,0
2003/1/3 6:15,0.005,0,0.3388,0,0.354,0.1621,0.2586,0.8973,0
2003/1/3 6:30,0.005,0,0.0504,0,0.3885,0.1632,0.345,0.924,0
2003/1/3 6:45,0.005,0,0.0487,0,0.5269,0.162,0.3462,1.0122,0
2003/1/3 7:00,0.005,0,0.0459,0,0.1125,0.1992,0.2599,0.9033,0
2003/1/3 7:15,0.0049,0,0.0495,0,0.5871,0.159,0.2748,0.9996,0
2003/1/3 7:30,0.005,0,0.048,0,0.2893,0.1598,0.2635,0.9275,0
2003/1/3 7:45,0.6152,0,0.1816,0,0.3999,0.8899,0.3429,0.4209,0
2003/1/3 8:00,1.6608,0,0.4383,0,0.2645,2.283,0.2543,-0.6798,0
2003/1/3 8:15,1.0655,0,0.4523,0,0.6323,1.6032,0.3603,0.4631,0
2003/1/3 8:30,0.9016,0,0.5921,0.5239,0.3181,1.4489,0.3466,1.2246,0
2003/1/3 8:45,0.8613,0,0.438,0.4464,0.4159,1.3854,0.2521,0.6359,0
2003/1/3 9:00,0.8883,0,0.4356,0,0.2858,1.4534,0.3393,0.5728,0
2003/1/3 9:15,0.8163,0,1.0944,0,0.5674,1.4136,0.3662,0.3948,0
2003/1/3 9:30,0.4651,0,0.2611,0,0.4297,0.8778,0.2936,0.7724,0
2003/1/3 9:45,0.0052,0,0,0,0.4893,0.2259,0.3869,0.8893,0
2003/1/3 10:00,0.005,0,0.0013,0,0.2935,0.5325,0.3527,1.0223,0
2003/1/3 10:15,0.3819,0,0.2396,0,0.4038,0.913,0.1826,0.5221,0
2003/1/3 10:30,1.2597,0,0.3979,0,0.5329,1.8507,0.3492,-0.415,0
2003/1/3 10:45,0.8256,0,0.1964,0,0.3557,1.3859,0.3485,0.0465,0
2003/1/3 11:00,0.7937,0,0.2228,0,0.4454,1.3632,0.2593,0.1855,0
2003/1/3 11:15,0.777,0,0.2094,0,0.2111,1.3429,0.2766,0.0687,0
2003/1/3 11:30,0.1987,0,0.1086,0,0.6663,0.48,0.256,0.2972,0
2003/1/3 11:45,0.005,0,0.1346,0,0.3201,0.1623,0.3447,0.4751,0
2003/1/3 12:00,1.2106,0,1.1416,0,0.6997,1.4514,0.2519,-0.5923,0
2003/1/3 12:15,1.0352,0,0.3709,0,0.3961,1.4086,0.3453,-0.4311,0
2003/1/3 12:30,0.9732,0,0.7406,0.3145,0.9619,1.561,0.413,-0.2716,0
2003/1/3 12:45,0.8649,0,0.5777,0,0.7978,1.4233,0.3457,0.2652,0
2003/1/3 13:00,0.9546,0,0.5717,0,0.6414,1.5922,0.2506,0.0994,0
2003/1/3 13:15,0.825,0,0.5584,0,0.5292,1.4488,0.3516,0.2593,0
2003/1/3 13:30,0.7998,0,0.5525,0,0.5256,1.3859,0.3482,0.2936,0
2003/1/3 13:45,0.8037,0,0.8436,0,0.5852,1.3604,0.1826,0.3151,0
2003/1/3 14:00,0.7988,0,0.7674,0,0.4589,1.3519,0.373,0.2557,0
2003/1/3 14:15,0.7952,0,0.807,0,0.8361,1.3977,0.3491,0.2305,0
2003/1/3 14:30,0.7824,0,0.7546,0,0.1322,1.3562,0.2553,0.1927,0
2003/1/3 14:45,0.7713,0,0.752,0,0.5262,1.3352,0.269,0.1843,0
2003/1/3 15:00,0.7573,0,1.1398,0,0.5013,1.2921,0.3437,0.1787,0
2003/1/3 15:15,0.77,0,1.2447,0,0.4234,1.274,0.2484,0.095,0
2003/1/3 15:30,0.7724,0,0.8804,0,0.5972,1.3038,0.336,0.2085,0
2003/1/3 15:45,0.7652,0,1.385,0.3034,0.3616,1.5431,0.2487,0.4211,0
2003/1/3 16:00,0.7802,0,1.2593,0,0.7547,1.5434,0.2667,0.2311,0
2003/1/3 16:15,0.7623,0,0.9435,0,0.2932,1.5382,0.3136,0.234,0
2003/1/3 16:30,0.7524,0,1.0901,0,0.3806,1.4934,0.2748,0.2663,0
2003/1/3 16:45,0.7458,0,1.1621,0,0.5774,1.4861,0.3456,0.2796,0
2003/1/3 17:00,0.6427,0,1.2221,0,0.3521,1.3841,0.179,0.4189,0
2003/1/3 17:15,0.6792,0,1.4272,0,0.6791,1.3573,0.4611,0.32,0
2003/1/3 17:30,0.7289,0,1.4695,0,0.3576,1.4052,0.3672,0.1526,0
2003/1/3 17:45,0.611,0,1.5837,0,0.666,1.3202,0.3738,0.2628,0
2003/1/3 18:00,0.6798,0,1.5866,0,0.3669,1.3846,0.2729,0.4213,0
2003/1/3 18:15,0.7332,0,1.5803,0,0.2877,1.5013,0.2403,0.8114,0
2003/1/3 18:30,0.6179,0,2.1089,0,0.6869,1.3877,0.3335,0.3056,0
2003/1/3 18:45,0.6919,0,1.91,0,0.3213,1.4371,0.2369,0.5947,0
2003/1/3 19:00,0.7249,0,1.6828,0,0.6427,1.387,0.3266,0.6637,0
2003/1/3 19:15,0.724,0,1.6878,0,0.5237,1.3108,0.1696,0.8048,0
2003/1/3 19:30,0.5832,0,1.6453,0,0.5044,1.1782,0.3306,0.9494,0
2003/1/3 19:45,0.7351,0,1.6232,0,0.6801,1.3334,0.2382,0.7092,0
2003/1/3 20:00,0.7269,0,1.6296,0,0.1439,1.3147,0.3259,0.8695,0
2003/1/3 20:15,0.6523,0,2.2245,0,0.5615,1.2702,0.1675,1.0544,0
2003/1/3 20:30,0.6502,0,1.8822,0,0.5931,1.4639,0.3192,0.761,0
2003/1/3 20:45,0.7262,0,1.7842,0,0.3466,1.5389,0.3758,0.6896,0
2003/1/3 21:00,0.7304,0,1.724,0,0.707,1.497,0.1698,0.6235,0
2003/1/3 21:15,0.6566,0,1.6633,0,0.5288,1.3761,0.3417,0.8247,0
2003/1/3 21:30,0.6595,0,1.639,0,0.5518,1.2889,0.3277,0.8168,0
2003/1/3 21:45,0.7197,0,1.6308,0,0.698,1.4918,0.236,0.6903,0
2003/1/3 22:00,0.7285,0,1.9166,0,0.1164,1.3356,0.2638,0.6847,0
2003/1/3 22:15,0.6545,0,2.7075,0,0.5741,1.3908,0.2402,0.7263,0
2003/1/3 22:30,0.6399,0,2.7179,0,0.5678,1.6996,0.4192,0.306,0
2003/1/3 22:45,0.7239,0,2.8132,0,0.41,1.8972,0.2334,0.2245,0
2003/1/3 23:00,0.7253,0,3.3421,0,0.7561,1.8989,0.3253,0.1178,0
2003/1/3 23:15,0.5769,0,2.8354,0,0.5694,1.4714,0.1656,0.5263,0
2003/1/3 23:30,0.7193,0,2.518,0,0.9603,1.6776,0.322,0.4373,0
2003/1/3 23:45,0.7152,0,2.0942,0,0.8516,1.6864,0.2314,0.483,0
2003/1/4 0:00,0.5724,0,1.5237,0,0.4383,1.3634,0.3228,0.4404,0
2003/1/4 0:15,0.7105,0,0.8273,0,0.7642,1.2097,0.2346,0.2137,0
2003/1/4 0:30,0.5645,0,1.1291,0,0.536,1.0518,0.2483,0.4491,0
2003/1/4 0:45,0.3311,0,0.8811,0,0.4624,0.7671,0.3136,0.6816,0
2003/1/4 1:00,0.0049,0,0.912,0,0.6257,0.4689,0.3223,0.8724,0
2003/1/4 1:15,0.005,0,0.5302,0,0.2762,0.4674,0.2275,0.9432,0
2003/1/4 1:30,0.0052,0,0.037,0,0.61,0.1621,0.2328,1.0377,0
2003/1/4 1:45,0.005,0,0.0369,0,0.5193,0.1626,0.3197,1.12,0
2003/1/4 2:00,0.005,0,0.0467,0,0.3439,0.161,0.1639,0.9058,0
2003/1/4 2:15,0.005,0,0.0511,0,0.768,0.1598,0.3224,0.9125,0
2003/1/4 2:30,0.0049,0,0.0526,0,0.4163,0.1594,0.2307,0.9634,0
2003/1/4 2:45,0.005,0,0.0536,0,0.452,0.1584,0.3226,0.9281,0
2003/1/4 3:00,0.0049,0,0.0544,0,0.3714,0.1587,0.1672,0.8695,0
2003/1/4 3:15,0.005,0,0.0564,0,0.3941,0.1591,0.3172,0.9425,0
2003/1/4 3:30,0.005,0,0.0613,0,0.6811,0.1585,0.3244,0.9524,0
2003/1/4 3:45,0.005,0,0.066,0,0.2832,0.1594,0.2392,0.9022,0
2003/1/4 4:00,0.005,0,0.0762,0,0.6061,0.1596,0.2576,0.9121,0
2003/1/4 4:15,0.005,0,0.0783,0,0.5312,0.16,0.2392,0.9599,0
2003/1/4 4:30,0.005,0,0.0819,0,0.2699,0.1598,0.327,0.8916,0
2003/1/4 4:45,0.005,0,0.091,0,0.5026,0.1604,0.2382,0.8984,0
2003/1/4 5:00,0.005,0,0.0876,0,0.3364,0.1608,0.3303,0.9537,0
2003/1/4 5:15,0.005,0,0.0899,0,0.6742,0.16,0.1731,0.8598,0
2003/1/4 5:30,0.005,0,0.0829,0,0.3499,0.1607,0.3282,0.9022,0
2003/1/4 5:45,0.0049,0,0.5911,0,0.4621,0.1604,0.2364,0.9626,0
2003/1/4 6:00,0.0049,0,0.4045,0,0.2655,0.159,0.3326,0.9,0
2003/1/4 6:15,0.005,0,0.0822,0,0.4319,0.1588,0.174,0.9268,0
2003/1/4 6:30,0.005,0,0.0998,0,0.6072,0.1588,0.3305,0.8916,0
2003/1/4 6:45,0.0049,0,0.0975,0,0.3139,0.1575,0.2494,0.85,0
2003/1/4 7:00,0.005,0,0.1058,0,0.6284,0.1966,0.3296,0.9292,0
2003/1/4 7:15,0.005,0,0.0647,0,0.1162,0.1588,0.2474,0.9022,0
2003/1/4 7:30,0.005,0,0.0592,0,0.5508,0.1583,0.2661,0.8752,0
2003/1/4 7:45,0.005,0,0.0588,0,0.4431,0.1908,0.2527,1.0197,0
2003/1/4 8:00,1.9742,0,0.0593,0,0.4516,2.574,0.3331,-1.0826,0
2003/1/4 8:15,1.3326,0,0.0596,0,0.3358,1.9401,0.2415,-0.3908,0
2003/1/4 8:30,1.1133,0,0.0596,0,0.2219,1.6953,0.3158,-0.2161,0
2003/1/4 8:45,0.8945,0,0.1449,0.5496,0.6903,1.461,0.4277,0.6556,0
2003/1/4 9:00,1.0123,0,0.0541,0.6732,0.2454,1.6321,0.3525,-0.0043,0
2003/1/4 9:15,0.8179,0,0.0406,0,0.4572,1.4249,0.6368,0.2199,0
2003/1/4 9:30,0.8653,0,0.0472,0,0.4244,1.4338,0.4316,-0.0717,0
2003/1/4 9:45,0.5744,0,0.0482,0,0.4992,0.9727,0.8356,0.7423,0
2003/1/4 10:00,0.0052,0,0.3469,0,0.329,0.2511,0.3944,2.8159,0
2003/1/4 10:15,0.0052,0,1.6209,0,0.3031,0.5257,0.3299,0.797,0
2003/1/4 10:30,0.005,0,0.0287,0,0.6929,0.3558,0.2422,0.8198,0
2003/1/4 10:45,0.0052,0,0.0235,0,0.3424,0.354,0.3344,0.8205,0
2003/1/4 11:00,0.005,0,0.0268,0,0.9013,0.3537,0.1706,0.7983,0
2003/1/4 11:15,0.0052,0,0.4933,0,0.8407,0.3532,0.3243,0.7839,0
2003/1/4 11:30,0.0052,0,0,0,0.6902,0.3525,0.2385,0.8018,0
2003/1/4 11:45,0.005,0,0,0,0.631,0.6702,0.2553,0.8633,0
2003/1/4 12:00,0.005,0,0,0,0.4408,0.6984,0.3237,0.7134,0
2003/1/4 12:15,0.005,0,0,0,0.7197,0.6542,0.2333,0.7618,0
2003/1/4 12:30,1.0048,0,0,0,0.1184,1.581,0.3344,-0.0874,0
2003/1/4 12:45,1.0123,0,0,0,0.5514,1.5309,0.177,-0.1319,0
2003/1/4 13:00,0.775,0,0,0,0.5528,1.2744,0.3374,0.0351,0
2003/1/4 13:15,0.6211,0,0,0,0.3833,1.1383,0.2444,0.1562,0
2003/1/4 13:30,0.7201,0,0.0278,0,0.7049,1.2524,0.3364,0.0294,0
2003/1/4 13:45,0.5744,0,0.0141,0,0.2981,1.0611,0.1758,0.2336,0
2003/1/4 14:00,0.5848,0,0.0209,0,0.3275,1.1268,0.3364,0.1938,0
2003/1/4 14:15,0.696,0,0.0269,0,0.6808,1.4325,0.2395,0.6294,0
2003/1/4 14:30,0.5718,0,0.0186,0,0.3335,1.3042,0.2592,0.2974,0
2003/1/4 14:45,0.56,0,0.0252,0,0.624,1.3005,0.2467,0.2195,0
2003/1/4 15:00,0.5714,0,0.0043,0,0.5545,1.3069,0.3259,0.5448,0
2003/1/4 15:15,0.5687,0,0,0,0.2524,1.3248,0.1907,0.4308,0
2003/1/4 15:30,0.5665,0,0,0,0.5812,1.193,0.321,0.5492,0
2003/1/4 15:45,0.6035,0,0,0,0.6062,1.1858,0.3237,0.3979,0
2003/1/4 16:00,0.5599,0,0,0,0.3924,1.112,0.2317,0.4546,0
2003/1/4 16:15,0.2388,0,0,0.9534,0.6689,0.5,0.2582,0.7482,0
2003/1/4 16:30,0.005,0,0,1.5575,0.3476,0.1616,0.2328,0.9405,0
2003/1/4 16:45,0.005,0,0.2141,0.2074,0.2736,0.1606,0.3295,0.916,0
2003/1/4 17:00,0.0049,0,0.7446,0.0255,0.7145,0.3385,0.1663,1.1723,0
2003/1/4 17:15,1.0329,0,0.8469,0.0251,0.3466,1.5847,0.3479,0.1829,0
2003/1/4 17:30,0.7659,0,0.8014,0.0255,0.5839,1.3264,0.3277,0.4222,0
2003/1/4 17:45,0.5835,0,0.9158,0.0261,0.4506,1.1569,0.1676,0.6421,0
2003/1/4 18:00,0.6336,0,1.0346,0.02,0.2004,1.259,0.3264,0.7128,0
2003/1/4 18:15,0.643,0,0.9432,0,0.6944,1.2522,0.2383,0.606,0
2003/1/4 18:30,0.5596,0,0.8653,0,0.3817,1.1638,0.3228,0.6556,0
2003/1/4 18:45,0.5525,0,0.8605,0,0.5805,1.1543,0.1673,0.6765,0
2003/1/4 19:00,0.5568,0,0.8564,0,0.4152,1.1339,0.3315,0.6316,0
2003/1/4 19:15,0.5534,0,0.8558,0,0.2013,1.0898,0.2344,0.6687,0
2003/1/4 19:30,0.5453,0,0.8505,0,0.6864,1.1104,0.2589,0.6791,0
2003/1/4 19:45,0.543,0,0.8588,0,0.3384,1.0778,0.2403,0.6644,0
2003/1/4 20:00,0.5597,0,0.9801,0,0.606,1.1242,0.3288,0.589,0
2003/1/4 20:15,0.5622,0,0.8064,0,0.2817,1.1278,0.2398,0.6732,0
2003/1/4 20:30,0.5504,0,0.7983,0,0.337,1.0879,0.2592,0.6088,0